Tracking 35280 objects as of 7-Sep-2026
HD Live streaming from Space Station
objects crossing your sky now

OPS 9321 (IDSCS 8)


OPS 9321 (IDSCS 8) is classified as:


NORAD ID: 2645
Int'l Code: 1967-003A
Launch date: January 18, 1967
Source: United States (US)
Launch site: AIR FORCE EASTERN TEST RANGE (AFETR)
Your satellite tracking list
Your tracking list is empty




NASA's NSSDC Master Catalog

Two Line Element Set (TLE):
1  2645U 67003A   26249.59970837 -.00000112  00000-0  00000+0 0  9998
2  2645   8.4922  43.7481 0035509 128.0802  69.1964  1.08317358235331
Source of the keplerian elements: AFSPC